ICEYE-X55 (64581 NORAD) Tracking and Keplerian Element Data

This shows tracking and keplerian element data for the satellite.

Feedback or suggestion? Click here.




ElementValue
Catalog64581
NameICEYE-X55
Epoch Orbit2719
Epoch Day354.26808388
Epoch Year2025
RAAN105.9771
Inclination97.7616
Eccentricity0.0002572
Argument of Perigee204.9279
Mean Anonmoly155.1817
Mean Motion14.93576449
Decay Rate3.712E-05
L11 64581U 25135BF 25354.26808388 .00003712 00000+0 35725-3 0 9999
L22 64581 97.7616 105.9771 0002572 204.9279 155.1817 14.93576449 27190



Live tracking and technical data element details for ICEYE-X55 (NORAD 64581). ICEYE-X55 can be tracked NOW for your location showing map with azimuth and elevation plus other details from your city location.







IsCatalogInMostPopularTable: catalog: 64581, numindb: 26
Update: records affected: 1



GetName: 64581 ICEYE-X55

Hit Count: updated at: Tue, 21 Apr 2026 20:58:39 GMT